Location: Kimberly
(42.5380°N, 114.3640°W)
Time: 08:27:49
(UTC-06:00)

ISS - Visible Passes

Search period start: 07 May 2021 00:00
Search period end: 17 May 2021 00:00
Orbit: 418 x 421 km, 51.6° (Epoch: 07 May)

Date Brightness Start Highest point End Pass type
(mag) Time Alt. Az. Time Alt. Az. Time Alt. Az.
07 May -1.6 03:20:02 25° N 03:20:02 25° N 03:22:28 10° NE visible
07 May -1.0 04:54:50 10° NW 04:57:10 17° N 04:59:30 10° NE visible
08 May -0.9 02:34:05 17° NE 02:34:05 17° NE 02:35:07 10° NE visible
08 May -1.0 04:07:09 10° NW 04:09:31 17° N 04:11:53 10° NE visible
08 May -1.3 05:44:23 10° NW 05:47:11 23° NNE 05:49:58 10° ENE visible
09 May -1.3 03:21:03 17° NNW 03:21:52 19° N 03:24:22 10° NE visible
09 May -1.1 04:56:59 10° NW 04:59:34 20° NNE 05:02:09 10° ENE visible
10 May -1.0 02:35:02 20° N 02:35:02 20° N 02:36:56 10° NE visible
10 May -0.9 04:09:30 10° NW 04:11:55 18° N 04:14:20 10° NE visible
10 May -2.3 05:46:11 10° NW 05:49:24 40° NNE 05:52:36 10° E visible
11 May -0.6 01:49:00 13° NE 01:49:00 13° NE 01:49:33 10° NE visible
11 May -0.9 03:21:56 10° NW 03:24:16 17° N 03:26:35 10° NE visible
11 May -1.7 04:58:49 10° NW 05:01:50 29° NNE 05:04:52 10° E visible
12 May -1.0 02:35:49 16° NNW 02:36:36 17° N 02:38:57 10° NE visible
12 May -1.3 04:11:28 10° NW 04:14:15 23° NNE 04:17:03 10° ENE visible
13 May -0.9 01:49:36 18° N 01:49:36 18° N 01:51:25 10° NE visible
13 May -1.0 03:24:03 10° NW 03:26:38 20° NNE 03:29:13 10° ENE visible
13 May -3.2 05:00:36 10° NW 05:03:57 61° NNE 05:07:18 10° ESE visible
13 May -1.8 21:45:58 10° SSE 21:46:52 13° SSE 21:46:52 13° SSE visible
14 May -0.8 01:03:01 15° NNE 01:03:01 15° NNE 01:03:59 10° NE visible
14 May -0.8 02:36:35 10° NW 02:38:59 18° N 02:41:24 10° NE visible
14 May -2.4 04:13:14 10° NW 04:16:27 40° NNE 04:19:40 10° E visible
14 May -3.9 22:33:20 10° SW 22:36:39 64° SE 22:39:59 10° ENE visible
15 May -1.5 00:10:47 10° WNW 00:13:41 26° NNW 00:16:36 10° NE visible
15 May -0.8 01:49:00 10° NW 01:51:19 17° N 01:53:39 10° NE visible
15 May -1.7 03:25:52 10° NW 03:28:54 30° NNE 03:31:55 10° E visible
15 May -3.6 05:02:34 10° WNW 05:05:50 49° SW 05:09:06 10° SE visible
15 May -3.2 21:46:10 10° SSW 21:49:17 37° SE 21:52:25 10° ENE visible
15 May -2.0 23:23:00 10° W 23:26:07 34° NNW 23:29:15 10° NE visible
16 May -0.8 01:01:17 10° NW 01:03:39 17° N 01:06:00 10° NE visible
16 May -1.3 02:38:31 10° NW 02:41:18 23° NNE 02:44:06 10° ENE visible
16 May -3.9 04:15:04 10° WNW 04:18:26 83° SW 04:21:49 10° SE visible
16 May -2.8 22:35:19 10° WSW 22:38:36 49° NNW 22:41:53 10° NE visible
